Regional Weather Roundup
Issued by NWS

Home | Current Version | Previous Version | Graphics & Text | Print | Product List | Glossary Off
Versions: 1 2 3 4 5 6 7 8 9 10 11 12 13 14 15 16 17 18 19 20 21 22 23 24 25 26 27 28 29 30 31 32 33 34 35 36 37 38 39 40 41 42 43 44 45 46 47 48 49 50

000
ASUS43 KMKX 280421
RWRWI

WISCONSIN REGIONAL WEATHER ROUNDUP
NATIONAL WEATHER SERVICE MILWAUKEE/SULLIVAN WI
1100 PM CDT THU AUG 27 2015

NOTE: "FAIR" INDICATES FEW OR NO CLOUDS BELOW 12,000 FEET WITH NO
SIGNIFICANT WEATHER AND/OR OBSTRUCTIONS TO VISIBILITY.

WIZ001-002-006>008-014>016-023>028-280500-
NORTHWEST WISCONSIN

CITY           SKY/WX    TMP DP  RH WIND       PRES   REMARKS
SUPERIOR ARPT  CLOUDY    57  50  79 CALM      30.00S
ASHLAND        MOCLDY    61  59  93 S5        30.01F
HAYWARD        MOCLDY    64  58  80 S5        30.03S
SIREN          PTCLDY    64  59  86 S6        30.00F
CUMBERLAND     PTCLDY    59  57  94 S3        30.02F
RICE LAKE      PTCLDY    61  57  86 SE5       30.04F
CHETEK         PTCLDY   N/A N/A N/A E6        30.03F
LADYSMITH      PTCLDY    62  58  84 SE5       30.06S
EAU CLAIRE     MOCLDY    65  58  78 S7        30.03F
MENOMONIE      PTCLDY    60  59  95 SE3       30.03F
NEW RICHMOND   MOCLDY    62  59  92 SE5       30.02S
OSCEOLA        MOCLDY    63  61  95 CALM      30.04R
$$

WIZ003>005-009-010-017-018-280500-
NORTH CENTRAL WISCONSIN

CITY           SKY/WX    TMP DP  RH WIND       PRES   REMARKS
MANITOWISH WTR CLOUDY    60  58  94 S3        30.06S
ARBOR VITAE    MOCLDY    62  57  85 CALM      30.06F
WOODRUFF       MOCLDY    62  57  85 CALM      30.06F
RHINELANDER    PTCLDY    57  53  86 CALM      30.08F
EAGLE RIVER    PTCLDY    58  55  92 CALM      30.06F
LAND O LAKES   PTCLDY    54  53  94 CALM      30.07F
PHILLIPS       PTCLDY    60  57  91 CALM      30.05F
TOMAHAWK       MOCLDY    56  55  95 CALM      30.07F
MEDFORD        MOCLDY    59  57  94 S6        30.07F
MERRILL        PTCLDY    57  57  98 CALM      30.08S
$$

WIZ029-030-035-036-043>047-280500-
CENTRAL WISCONSIN

CITY           SKY/WX    TMP DP  RH WIND       PRES   REMARKS
WAUSAU         PTCLDY    62  58  86 CALM      30.06F
MOSINEE        PTCLDY    59  57  94 S3        30.09F
MARSHFIELD     MOCLDY    61  56  83 S5        30.08S
STEVENS POINT  PTCLDY    57  55  92 CALM      30.09F
WAUPACA        PTCLDY    60  58  92 CALM      30.09S
WAUTOMA        PTCLDY    57  57 100 CALM      30.09F FOG
WISC RAPIDS    MOCLDY    63  56  78 S6        30.09F
CAMP DOUGLAS   MOCLDY    61  61 100 S7        30.08F
$$

WIZ011>013-019>022-031-037>040-048>050-280500-
NORTHEAST WISCONSIN

CITY           SKY/WX    TMP DP  RH WIND       PRES   REMARKS
ANTIGO         PTCLDY    56  54  92 CALM      30.08F
SHAWANO        PTCLDY    64  57  78 S3        30.08F
OCONTO         MOCLDY    60  60 100 CALM      30.08F
STURGEON BAY   PTCLDY    57  52  82 S10       30.11F
GREEN BAY      PTCLDY    60  56  86 S7        30.09F
MANITOWOC      PTCLDY    60  54  80 MISG      30.12F
APPLETON       MOCLDY    63  57  82 SE5       30.09S
CLINTONVILLE   PTCLDY    61  54  77 S3        30.08F
OSHKOSH        CLEAR     60  56  86 S7        30.10S
$$

WIZ032>034-041-042-053>061-280500-
SOUTHWEST WISCONSIN

CITY           SKY/WX    TMP DP  RH WIND       PRES   REMARKS
LA CROSSE      MOCLDY    65  59  81 SE3       30.05S
SPARTA         PTCLDY    58  56  92 CALM      30.07F
VIROQUA        MOCLDY    61  59  92 SE6       30.08F
BOSCOBEL       MOCLDY    62  59  90 CALM      30.09F
PRAIRIE DU CHI MOCLDY    65  58  77 CALM      30.07F
PLATTEVILLE    MOCLDY    63  60  90 SE6       30.11R
$$

WIZ056-057-062-063-064-067-068-280500-
SOUTH CENTRAL WISCONSIN

CITY           SKY/WX    TMP DP  RH WIND       PRES   REMARKS
REEDSBURG      CLEAR     62  58  88 S3        30.09F
BARABOO/DELLS  CLEAR     62  57  82 S7        30.10F
LONE ROCK      CLEAR     59  56  89 E7        30.10F
MINERAL POINT  PTCLDY    61  59  94 CALM      30.11F
MADISON        MOCLDY    65  57  75 S7        30.11S
MIDDLETON      CLEAR     63  56  79 S5        30.11F
WATERTOWN      PTCLDY    60  57  91 SE5       30.11F
MONROE         CLEAR     61  55  82 SE7       30.12S
JANESVILLE     CLEAR     59  55  88 SE3       30.12S
$$

WIZ051-052-058>065-066-070>072-280500-
SOUTHEAST WISCONSIN

CITY           SKY/WX    TMP DP  RH WIND       PRES   REMARKS
MILWAUKEE      MOCLDY    61  55  81 S6        30.13F
WAUKESHA       CLEAR     57  52  82 CALM      30.15S
MILWAUKEE/TIMM CLEAR     59  52  77 S5        30.13F
RACINE         PTCLDY    58  54  86 S3        30.15F
BURLINGTON     CLEAR     51  50  96 CALM      30.14S
KENOSHA        CLEAR     59  54  83 SE5       30.14F
FOND DU LAC    CLEAR     60  57  89 S6        30.11F
SHEBOYGAN      PTCLDY    56  53  90 CALM      30.12F
WEST BEND      CLEAR     57  52  82 CALM      30.12F
JUNEAU         PTCLDY    60  55  84 SE8       30.13S
$$

LSZ147-162-280500-
LAKE SUPERIOR

STATION/POSITION TIME  TEMP    WIND        PRES    WAVE
                       AIR SEA DIR/SP/G            HT/PER
                 (UTC) (F)     (DEG/KT/KT) (MB)    (FT/S)
W MID LAKE BUOY  0350   59 56  150/  8/  8 1016.0F   0
DEVILS ISLAND    0400   63      CALM  /  3 1015.7F
PORT WING        0300   57      10/  4/  4 1016.3
SAXON HARBOR     0340   62      CALM  /  1 1015.6F
$$

LMZ867-665-643>646-280500-
LAKE MICHIGAN

STATION/POSITION TIME  TEMP    WIND        PRES    WAVE
                       AIR SEA DIR/SP/G            HT/PER
                 (UTC) (F)     (DEG/KT/KT) (MB)    (FT/S)
CHAMBERS ISLAND  0300   63     160/  6/ 10 1018.6F
S GREEN BAY BUOY 0400   63     180/ 12/ 16 1020.2F
N MID LAKE BUOY  0350   63 64  210/ 17/ 21 1018.9F   3/ 4
NORTHPORT PIER   0400   62     160/  5/ 13 1019.0F
SISTER BAY       0349   60     180/ 10/ 12   N/A
ALGOMA LAKESHORE 0314          210/ 11/ 12   N/A
KEWAUNEE LAKESHO 0400   53     170/  7/  9 1018.5F
SHEBOYGAN LAKESH 0400   61     190/ 11/ 12 1020.2F
PORT WASHINGTON  0300   53      CALM  /  1 1021.0S
ATWATER BUOY     0400   52 47  170/  4/  6 1021.4F
MILWAUKEE LAKESH 0400   60     130/  4/  5   N/A
S MID LAKE BUOY  0350   66 68  140/  8/ 10 1020.6F   0
KENOSHA   LAKESH 0400   63     180/  7/  9 1020.0F
$$

TC  - TEMPERATURE IN CELSIUS
VSB - VISIBILITY IN STATUTE MILES
WCI - WIND CHILL INDEX
HX  - HEAT INDEX




USA.gov is the U.S. government's official web portal to all federal, state and local government web resources and services.